Location: Newark
(49.3667°N, 21.6167°E)
Time: 19:07:05
(UTC+00:00)

Envisat - Pass Details

Date: 10 December 2019
Orbit: 764 x 766 km, 98.1° (Epoch: 28 January)

Event Time Altitude Azimuth Distance (km) Brightness Sun altitude
Rises 04:38:05 0° 21° (NNE) 3,246 6.3 -15.3°
Reaches altitude 10° 04:40:39 10° 32° (NNE) 2,315 5.7 -14.9°
Maximum altitude 04:45:09 31° 94° (E) 1,331 5.0 -14.2°
Drops below altitude 10° 04:49:37 10° 156° (SSE) 2,298 6.1 -13.5°
Sets 04:52:10 0° 167° (SSE) 3,219 6.7 -13.1°
